Back to catalog

DELTA 1 DEB

AliveSSO
NORAD 21373·DEBRIS·🇺🇸 United States

Launched Jun 12, 1975 from Vandenberg Space Force Base

Loading…

Next Passes (next 24 hours)

TLE

FreshSource: Space-Track

Epoch: Sep 14, 2026, 12:12 UTC

1 21373U 75052CT  26257.50894874  .00000057  00000-0  20107-3 0  9997
2 21373  99.9235 149.3579 0074282 171.9576 313.0475 13.32712786716212

Track DELTA 1 DEB in real time with AllMySat

Download on the App Store